This is the latest recevied weather packets stored in our database for station/object KM4NDN. If no packets are shown the sender has not sent any weather packets the latest 10 day(s).
| Time | Temp. | Humidity | Pressure | Rain* | Wind** | Luminosity | Snow |
|---|---|---|---|---|---|---|---|
| 1777543815 | 6.11° C | 82% | 1011.3 hPa | 0 mm | - | 0 W/m² | - |
| 1777543510 | 6.11° C | 81% | 1011.3 hPa | 0 mm | - | 0 W/m² | - |
| 1777543207 | 6.11° C | 82% | 1011.5 hPa | 0 mm | - | 0 W/m² | - |
| 1777542903 | 6.11° C | 82% | 1011.6 hPa | 0 mm | - | 0 W/m² | - |
| 1777542599 | 6.11° C | 82% | 1011.4 hPa | 0 mm | - | 0 W/m² | - |
| 1777542295 | 6.11° C | 82% | 1011.4 hPa | 0 mm | - | 0 W/m² | - |
| 1777541993 | 6.11° C | 82% | 1011.4 hPa | 0 mm | - | 0 W/m² | - |
| 1777541690 | 6.11° C | 82% | 1011.3 hPa | 0 mm | - | 0 W/m² | - |
| 1777541387 | 6.11° C | 82% | 1011.3 hPa | 0 mm | - | 0 W/m² | - |
| 1777541082 | 6.11° C | 83% | 1011.2 hPa | 0 mm | - | 0 W/m² | - |
| 1777540780 | 6.11° C | 82% | 1010.9 hPa | 0 mm | - | 0 W/m² | - |
| 1777540478 | 6.11° C | 83% | 1011.2 hPa | 0 mm | - | 0 W/m² | - |
| 1777540174 | 6.11° C | 84% | 1010.9 hPa | 0 mm | - | 0 W/m² | - |
| 1777539869 | 6.11° C | 84% | 1011 hPa | 0 mm | - | 0 W/m² | - |
| 1777539566 | 6.11° C | 84% | 1011.2 hPa | 0 mm | - | 0 W/m² | - |
| 1777539262 | 6.11° C | 82% | 1010.9 hPa | 0 mm | - | 0 W/m² | - |
| 1777538959 | 6.11° C | 81% | 1010.9 hPa | 0 mm | - | 0 W/m² | - |
| 1777538654 | 6.11° C | 80% | 1010.9 hPa | 0 mm | - | 0 W/m² | - |
| 1777538349 | 6.67° C | 81% | 1010.9 hPa | 0 mm | - | 0 W/m² | - |
| 1777538045 | 6.67° C | 80% | 1010.8 hPa | 0 mm | - | 0 W/m² | - |
| 1777537741 | 6.67° C | 79% | 1010.7 hPa | 0 mm | - | 0 W/m² | - |
| 1777537438 | 6.67° C | 78% | 1010.7 hPa | 0 mm | - | 0 W/m² | - |
| 1777537134 | 6.67° C | 78% | 1010.7 hPa | 0 mm | - | 0 W/m² | - |
| 1777536830 | 6.67° C | 81% | 1010.6 hPa | 0 mm | - | 0 W/m² | - |
| 1777536528 | 6.67° C | 85% | 1010.4 hPa | 0 mm | - | 0 W/m² | - |
* Rain latest hour (hover to see other rain measurements)
** Current wind speed in m/s (hover to see current wind gust speed)